ARIANE 3 DEB *, 17254

Orbit data source: Space-Track

ARIANE 3 DEB *, 17254 is space debris in HEO originally from a launch on Fri, 28 Mar 1986 UTC launched from the French Guiana (FRGUI). Debris objects in space refer to the collection of defunct objects orbiting the Earth. Examples of debris include non-operational satellites, rocket bodies, and fragments generated from explosions, collisions, or faulty payload assembly.

Loading next visibility...
Identifier
17254, 1986-026F
Orbit
HEO
Country
Flag of FRFR
Related business
Manufacturer
Unknown
Mission
Spacecraft
Bus & Motor
Unknown
Mass
Unknown
Launch date (UTC)
1986-03-28 (40 years ago)
Launch vehicle
Unknown
Launch site
French Guiana (FRGUI)
Object type
Payload
Rocket body
Debris
Shape & HBR
Unknown shape, 0.3 m
Radar Cross Section
Medium (>0.1 m² and <1 m²)

Expand to show TLE details & history
Last TLE update: 11 hours ago

TLE from 11 hours ago
0 ARIANE 3 DEB *
1 17254U 86026F   26105.46832318  .00000080  00000-0  32235-4 0  9997
2 17254   8.4467 248.2036 6660993  68.3241 347.4736  2.95873699342638
Epoch: 2026-04-15T11:14Z
TLE epoch observation values (Epoch: 2026-04-15T11:14:23.122Z)
Latitude
0.00006°
Longitude
-124.14673°
Altitude
2,795.643 km
Speed
8.212 km/s
True Right ascension
16h 32m 19s
True Declination
0° 00' 00"
Sunlit
Object was in daylight at epoch
Visualization orbit readout
Latitude
Unknown
Longitude
Unknown
Altitude
Unknown
Speed
Unknown
Apparent Right ascension
Unknown
Apparent Declination
Unknown
Sunlit
N/A
Visualization observer readout
Local Sidereal Time
04:56:49
Azimuth
Unknown
Elevation
Unknown
Doppler factor
Unknown
Orbital elements
Apogee altitude
27,778.225 km
Perigee altitude
467.093 km
Semi-major axis
20,500.796 km
Eccentricity
0.6661
Inclination
8.4467°
RAAN
248.2036°
Arg. of periapsis
68.3241°
True anomaly
291.83257°
Mean anomaly
347.4736°
Eccentric anomaly
326.29583°
Mean motion
0.73941 °/min
Orbital period
486.87 mins
BSTAR
0.000032235
Loading maneuver chart data...
Computing Atmospheric mass density...
Loading historical data...
Loading historical data...
Loading historical data...
Loading historical data...
Loading historical data...
Loading historical data...
Loading historical data...

Documentation

Showing up to 5 results
|